sat.trackr.live / text

‹ back to catalog

STARLINK-34020

NORAD 63939 · 2025-098P

PAYLOAD ACTIVE UNKNOWN

§ Identity

Operator
Country
US
Launch date
2025-05-13
Launch site
AFWTR
Launch vehicle
Mass (kg)
RCS (m²)

Purposes: comms

External: N2YO · Heavens-Above · Gunter

§ Orbital elements

Epoch: 2026-09-20T08:45:54.525888Z

Period
94.14 min
Inclination
69.9991°
Eccentricity
0.0003787
Mean motion
15.29586437 rev/d
Perigee alt
474.5 km
Apogee alt
479.6 km
Semi-major
6,855.2 km
B*
3.0527e-4
RAAN
141.1900°
Arg perigee
273.4491°
Mean anomaly
86.6251°
Rev number
7,577

§ Raw data

STARLINK-340201 63939U 25098P   26263.36521442  .00008660  00000+0  30527-3 0  99992 63939  69.9991 141.1900 0003787 273.4491  86.6251 15.29586437 75770

JSON: /api/v1/satellites/63939 · /tle

For live sub-satellite position, see the globe view (requires WebGL).

§ Visibility from observer

Set your observer location to see the next 7 days of passes ≥ 10°. The values pass through the URL so the page stays shareable.

No JS? Fill the form by hand. The geolocation button needs JavaScript.